Location: Newark
(50.0336°N, 22.0047°E)
Time: 11:11:15
(UTC+00:00)

Envisat - Pass Details

Date: 31 January 2020
Orbit: 764 x 766 km, 98.1° (Epoch: 20 February)

Event Time Altitude Azimuth Distance (km) Brightness Sun altitude
Rises 04:07:28 0° 25° (NNE) 3,244 6.5 -19.4°
Reaches altitude 10° 04:10:21 10° 42° (NE) 2,312 6.0 -18.9°
Maximum altitude 04:14:09 21° 90° (E) 1,681 5.7 -18.3°
Drops below altitude 10° 04:17:55 10° 138° (SE) 2,298 6.1 -17.7°
Sets 04:20:46 0° 155° (SSE) 3,219 6.7 -17.2°
